星链-2051 (STARLINK-2051 )

导读 | 星芒AI

STARLINK-2051 是星链计划中的一颗低轨通信卫星,由SpaceX研发并发射,旨在为全球用户提供高速互联网服务。该卫星采用先进推进系统和激光通信技术,提升网络连接的稳定性和传输效率。作为星链星座的重要组成部分,STARLINK-2051 有助于扩大覆盖范围,特别是在偏远和网络基础设施薄弱的地区,推动全球数字包容性发展。

基本信息
目录编号:
47661
目录名称:
STARLINK-2051
国际标识:
2021-012AT
轨道中心:
EARTH
卫星名称:
星链-2051
卫星全名:
星链-2051 (STARLINK-2051 )
卫星状态:
已陨落 最后检测时间 2025-02-01
发射日期:
2021-02-16 UTC
国别 :
美国 (US)
星等 :
--
轨道信息
数据来源 国际轨道数据
星历时间: 2025-02-01T15:41:34+0800
轨道信息已过期318天
半长轴: 6525.768km
偏心率: 0.0005099
轨道倾角: 53.029°
近地点辐角 220.121°
升交点赤经 25.262°
平近点角 244.992°
近地点: 144.305km
远地点: 150.961km
周期: 87.439分钟
每日圈数: 16.468551
详细信息
固有亮度:
5
最大亮度:
2.5
卫星平台:
Starlink V1.0
覆盖范围:
全球
运营商:
太空探索技术公司
运营商所在国:
美国
制造商(研发单位):
太空探索技术公司
制造商所在国:
美国
使用方式:
暂无
卫星简介
星链(Starlink)计划是由太空探索技术公司(SpaceX)提出的一个巨型低轨卫星互联网星座项目,计划在2019年至2024年间在太空搭建由约1.2万颗卫星组成的“星链”网络,其中1584颗将部署在地球上空550千米处的近地轨道,并从2020年开始工作。该卫星仍在工作。